Time,TemperatureF,DewpointF,PressureIn,WindDirection,WindDirectionDegrees,WindSpeedMPH,WindSpeedGustMPH,Humidity,HourlyPrecipIn,Conditions,Clouds,dailyrainin,SolarRadiationWatts/m^2,SoftwareType,DateUTC
2013-09-30 00:01:00,52.0,43.0,-100.00,SSW,201,6.0,13.0,72,0.00,,,2.40,0.000000,,2013-09-30 07:01:00,
2013-09-30 00:12:00,52.0,43.0,-100.00,SSW,201,6.0,13.0,72,0.00,,,2.40,0.000000,,2013-09-30 07:12:00,
2013-09-30 00:21:00,52.0,43.0,-100.00,SSW,201,6.0,13.0,72,0.00,,,2.40,0.000000,,2013-09-30 07:21:00,
2013-09-30 00:32:00,52.0,43.0,-100.00,SSW,201,6.0,13.0,72,0.00,,,2.40,0.000000,,2013-09-30 07:32:00,
2013-09-30 00:53:00,51.0,44.0,-100.00,SSW,201,4.0,17.0,77,0.01,,,2.39,0.000000,,2013-09-30 07:53:00,
2013-09-30 01:02:00,51.0,44.0,-100.00,SSW,201,4.0,17.0,77,0.01,,,2.39,0.000000,,2013-09-30 08:02:00,
2013-09-30 01:12:00,51.0,44.0,-100.00,SSW,201,4.0,17.0,77,0.01,,,2.39,0.000000,,2013-09-30 08:12:00,
2013-09-30 01:22:00,51.0,44.0,-100.00,SSW,201,4.0,17.0,77,0.01,,,2.39,0.000000,,2013-09-30 08:22:00,
2013-09-30 01:32:00,51.0,44.0,-100.00,SSW,201,4.0,17.0,77,0.01,,,2.39,0.000000,,2013-09-30 08:32:00,
2013-09-30 01:33:00,51.0,44.0,-100.00,West,269,3.0,16.0,77,0.00,,,2.27,0.000000,,2013-09-30 08:33:00,
2013-09-30 01:52:00,51.0,44.0,-100.00,West,269,3.0,16.0,77,0.00,,,2.27,0.000000,,2013-09-30 08:52:00,
2013-09-30 02:02:00,51.0,44.0,-100.00,West,269,3.0,16.0,77,0.00,,,2.27,0.000000,,2013-09-30 09:02:00,
2013-09-30 02:11:00,51.0,44.0,-100.00,West,269,3.0,16.0,77,0.00,,,2.27,0.000000,,2013-09-30 09:11:00,
2013-09-30 02:22:00,51.0,44.0,-100.00,West,269,3.0,16.0,77,0.00,,,2.27,0.000000,,2013-09-30 09:22:00,
2013-09-30 02:53:00,46.0,44.0,-100.00,SE,141,0.0,17.0,92,0.06,,,-99.99,0.000000,,2013-09-30 09:53:00,
2013-09-30 03:03:00,46.0,44.0,-100.00,SE,141,0.0,17.0,92,0.06,,,-99.99,0.000000,,2013-09-30 10:03:00,
2013-09-30 03:13:00,46.0,44.0,-100.00,SE,141,0.0,17.0,92,0.06,,,-99.99,0.000000,,2013-09-30 10:13:00,
2013-09-30 03:22:00,46.0,44.0,-100.00,SE,141,0.0,17.0,92,0.06,,,-99.99,0.000000,,2013-09-30 10:22:00,
2013-09-30 03:32:00,46.0,44.0,-100.00,SE,141,0.0,17.0,92,0.06,,,-99.99,0.000000,,2013-09-30 10:32:00,
2013-09-30 03:53:00,51.0,47.0,-100.00,South,187,3.0,8.0,85,0.00,,,2.23,0.000000,,2013-09-30 10:53:00,
2013-09-30 04:02:00,51.0,47.0,-100.00,South,187,3.0,8.0,85,0.00,,,2.23,0.000000,,2013-09-30 11:02:00,
2013-09-30 04:12:00,51.0,47.0,-100.00,South,187,3.0,8.0,85,0.00,,,2.23,0.000000,,2013-09-30 11:12:00,
2013-09-30 04:22:00,51.0,47.0,-100.00,South,187,3.0,8.0,85,0.00,,,2.23,0.000000,,2013-09-30 11:22:00,
2013-09-30 04:32:00,51.0,47.0,-100.00,South,187,3.0,8.0,85,0.00,,,2.23,0.000000,,2013-09-30 11:32:00,
2013-09-30 04:52:00,51.0,47.0,-100.00,South,170,2.0,9.0,85,0.01,,,2.21,0.000000,,2013-09-30 11:52:00,
2013-09-30 05:02:00,51.0,47.0,-100.00,South,170,2.0,9.0,85,0.01,,,2.21,0.000000,,2013-09-30 12:02:00,
2013-09-30 05:12:00,51.0,47.0,-100.00,South,170,2.0,9.0,85,0.01,,,2.21,0.000000,,2013-09-30 12:12:00,
2013-09-30 05:22:00,51.0,47.0,-100.00,South,170,2.0,9.0,85,0.01,,,2.21,0.000000,,2013-09-30 12:22:00,
2013-09-30 05:31:00,51.0,47.0,-100.00,South,170,2.0,9.0,85,0.01,,,2.21,0.000000,,2013-09-30 12:31:00,
2013-09-30 05:52:00,47.0,45.0,-100.00,ESE,106,0.0,10.0,94,0.01,,,2.14,0.000000,,2013-09-30 12:52:00,
2013-09-30 06:01:00,47.0,45.0,-100.00,ESE,106,0.0,10.0,94,0.01,,,2.14,0.000000,,2013-09-30 13:01:00,
2013-09-30 06:11:00,47.0,45.0,-100.00,ESE,106,0.0,10.0,94,0.01,,,2.14,0.000000,,2013-09-30 13:11:00,
2013-09-30 06:22:00,47.0,45.0,-100.00,ESE,106,0.0,10.0,94,0.01,,,2.14,0.000000,,2013-09-30 13:22:00,
2013-09-30 06:32:00,47.0,45.0,-100.00,ESE,106,0.0,10.0,94,0.01,,,2.14,0.000000,,2013-09-30 13:32:00,
2013-09-30 06:52:00,48.0,47.0,-100.00,SE,145,1.0,7.0,97,0.04,,,2.00,0.000000,,2013-09-30 13:52:00,
2013-09-30 07:02:00,48.0,47.0,-100.00,SE,145,1.0,7.0,97,0.04,,,2.00,0.000000,,2013-09-30 14:02:00,
2013-09-30 07:11:00,48.0,47.0,-100.00,SE,145,1.0,7.0,97,0.04,,,2.00,0.000000,,2013-09-30 14:11:00,
2013-09-30 07:22:00,48.0,47.0,-100.00,SE,145,1.0,7.0,97,0.04,,,2.00,0.000000,,2013-09-30 14:22:00,
2013-09-30 07:32:00,48.0,47.0,-100.00,SE,145,1.0,7.0,97,0.04,,,2.00,0.000000,,2013-09-30 14:32:00,
2013-09-30 07:33:00,49.0,47.0,-100.00,SSE,161,0.0,14.0,94,0.02,,,1.68,2.000000,,2013-09-30 14:33:00,
2013-09-30 07:53:00,49.0,47.0,-100.00,SSE,161,0.0,14.0,94,0.02,,,1.68,2.000000,,2013-09-30 14:53:00,
2013-09-30 08:02:00,49.0,47.0,-100.00,SSE,161,0.0,14.0,94,0.02,,,1.68,2.000000,,2013-09-30 15:02:00,
2013-09-30 08:11:00,49.0,47.0,-100.00,SSE,161,0.0,14.0,94,0.02,,,1.68,2.000000,,2013-09-30 15:11:00,
2013-09-30 08:22:00,49.0,47.0,-100.00,SSE,161,0.0,14.0,94,0.02,,,1.68,2.000000,,2013-09-30 15:22:00,
2013-09-30 08:33:00,50.0,47.0,-100.00,South,176,1.0,7.0,91,0.01,,,1.56,15.000000,,2013-09-30 15:33:00,
2013-09-30 08:54:00,50.0,47.0,-100.00,South,176,1.0,7.0,91,0.01,,,1.56,15.000000,,2013-09-30 15:54:00,
2013-09-30 09:04:00,50.0,47.0,-100.00,South,176,1.0,7.0,91,0.01,,,1.56,15.000000,,2013-09-30 16:04:00,
2013-09-30 09:14:00,50.0,47.0,-100.00,South,176,1.0,7.0,91,0.01,,,1.56,15.000000,,2013-09-30 16:14:00,
2013-09-30 09:24:00,50.0,47.0,-100.00,South,176,1.0,7.0,91,0.01,,,1.56,15.000000,,2013-09-30 16:24:00,
2013-09-30 09:33:00,53.0,50.0,-100.00,SSW,202,2.0,6.0,89,0.01,,,1.53,90.000000,,2013-09-30 16:33:00,
2013-09-30 09:53:00,53.0,50.0,-100.00,SSW,202,2.0,6.0,89,0.01,,,1.53,90.000000,,2013-09-30 16:53:00,
2013-09-30 10:03:00,53.0,50.0,-100.00,SSW,202,2.0,6.0,89,0.01,,,1.53,90.000000,,2013-09-30 17:03:00,
2013-09-30 10:13:00,53.0,50.0,-100.00,SSW,202,2.0,6.0,89,0.01,,,1.53,90.000000,,2013-09-30 17:13:00,
2013-09-30 10:22:00,53.0,50.0,-100.00,SSW,202,2.0,6.0,89,0.01,,,1.53,90.000000,,2013-09-30 17:22:00,
2013-09-30 10:53:00,57.0,52.0,-100.00,SSW,203,3.0,9.0,82,0.00,,,1.49,227.000000,,2013-09-30 17:53:00,
2013-09-30 11:02:00,57.0,52.0,-100.00,SSW,203,3.0,9.0,82,0.00,,,1.49,227.000000,,2013-09-30 18:02:00,
2013-09-30 11:12:00,57.0,52.0,-100.00,SSW,203,3.0,9.0,82,0.00,,,1.49,227.000000,,2013-09-30 18:12:00,
2013-09-30 11:22:00,57.0,52.0,-100.00,SSW,203,3.0,9.0,82,0.00,,,1.49,227.000000,,2013-09-30 18:22:00,
2013-09-30 11:32:00,57.0,52.0,-100.00,SSW,203,3.0,9.0,82,0.00,,,1.49,227.000000,,2013-09-30 18:32:00,
2013-09-30 11:53:00,56.0,51.0,-100.00,WSW,250,3.0,14.0,83,0.01,,,1.33,270.000000,,2013-09-30 18:53:00,
2013-09-30 12:02:00,56.0,51.0,-100.00,WSW,250,3.0,14.0,83,0.01,,,1.33,270.000000,,2013-09-30 19:02:00,
2013-09-30 12:12:00,56.0,51.0,-100.00,WSW,250,3.0,14.0,83,0.01,,,1.33,270.000000,,2013-09-30 19:12:00,
2013-09-30 12:22:00,56.0,51.0,-100.00,WSW,250,3.0,14.0,83,0.01,,,1.33,270.000000,,2013-09-30 19:22:00,
2013-09-30 12:32:00,56.0,51.0,-100.00,WSW,250,3.0,14.0,83,0.01,,,1.33,270.000000,,2013-09-30 19:32:00,
2013-09-30 12:33:00,57.0,51.0,-100.00,SSW,212,2.0,17.0,80,0.02,,,1.24,366.000000,,2013-09-30 19:33:00,
2013-09-30 13:12:00,57.0,51.0,-100.00,SSW,212,2.0,17.0,80,0.02,,,1.24,366.000000,,2013-09-30 20:12:00,
2013-09-30 13:23:00,57.0,51.0,-100.00,SSW,212,2.0,17.0,80,0.02,,,1.24,366.000000,,2013-09-30 20:23:00,
2013-09-30 13:33:00,50.0,47.0,-100.00,West,264,2.0,26.0,89,0.04,,,1.24,268.000000,,2013-09-30 20:33:00,
2013-09-30 13:53:00,50.0,47.0,-100.00,West,264,2.0,26.0,89,0.04,,,1.24,268.000000,,2013-09-30 20:53:00,
2013-09-30 14:02:00,50.0,47.0,-100.00,West,264,2.0,26.0,89,0.04,,,1.24,268.000000,,2013-09-30 21:02:00,
2013-09-30 14:11:00,50.0,47.0,-100.00,West,264,2.0,26.0,89,0.04,,,1.24,268.000000,,2013-09-30 21:11:00,
2013-09-30 14:22:00,50.0,47.0,-100.00,West,264,2.0,26.0,89,0.04,,,1.24,268.000000,,2013-09-30 21:22:00,
2013-09-30 14:33:00,55.0,50.0,-100.00,SSW,208,2.0,9.0,84,0.01,,,1.20,295.000000,,2013-09-30 21:33:00,
2013-09-30 14:54:00,55.0,50.0,-100.00,SSW,208,2.0,9.0,84,0.01,,,1.20,295.000000,,2013-09-30 21:54:00,
2013-09-30 15:03:00,55.0,50.0,-100.00,SSW,208,2.0,9.0,84,0.01,,,1.20,295.000000,,2013-09-30 22:03:00,
2013-09-30 15:13:00,55.0,50.0,-100.00,SSW,208,2.0,9.0,84,0.01,,,1.20,295.000000,,2013-09-30 22:13:00,
2013-09-30 15:23:00,55.0,50.0,-100.00,SSW,208,2.0,9.0,84,0.01,,,1.20,295.000000,,2013-09-30 22:23:00,
2013-09-30 15:33:00,56.0,51.0,-100.00,South,191,4.0,11.0,84,0.03,,,1.16,317.000000,,2013-09-30 22:33:00,
2013-09-30 15:54:00,56.0,51.0,-100.00,South,191,4.0,11.0,84,0.03,,,1.16,317.000000,,2013-09-30 22:54:00,
2013-09-30 16:03:00,56.0,51.0,-100.00,South,191,4.0,11.0,84,0.03,,,1.16,317.000000,,2013-09-30 23:03:00,
2013-09-30 16:12:00,56.0,51.0,-100.00,South,191,4.0,11.0,84,0.03,,,1.16,317.000000,,2013-09-30 23:12:00,
2013-09-30 16:23:00,56.0,51.0,-100.00,South,191,4.0,11.0,84,0.03,,,1.16,317.000000,,2013-09-30 23:23:00,
2013-09-30 16:54:00,53.0,47.0,-100.00,South,176,3.0,12.0,81,0.00,,,1.06,188.000000,,2013-09-30 23:54:00,
2013-09-30 17:02:00,53.0,47.0,-100.00,South,176,3.0,12.0,81,0.00,,,1.06,188.000000,,2013-10-01 00:02:00,
2013-09-30 17:12:00,53.0,47.0,-100.00,South,176,3.0,12.0,81,0.00,,,1.06,188.000000,,2013-10-01 00:12:00,
2013-09-30 17:22:00,53.0,47.0,-100.00,South,176,3.0,12.0,81,0.00,,,1.06,188.000000,,2013-10-01 00:22:00,
2013-09-30 17:32:00,53.0,47.0,-100.00,South,176,3.0,12.0,81,0.00,,,1.06,188.000000,,2013-10-01 00:32:00,
2013-09-30 17:52:00,52.0,49.0,-100.00,SSW,209,1.0,7.0,91,0.11,,,0.91,117.000000,,2013-10-01 00:52:00,
2013-09-30 18:02:00,52.0,49.0,-100.00,SSW,209,1.0,7.0,91,0.11,,,0.91,117.000000,,2013-10-01 01:02:00,
2013-09-30 18:12:00,52.0,49.0,-100.00,SSW,209,1.0,7.0,91,0.11,,,0.91,117.000000,,2013-10-01 01:12:00,
2013-09-30 18:21:00,52.0,49.0,-100.00,SSW,209,1.0,7.0,91,0.11,,,0.91,117.000000,,2013-10-01 01:21:00,
2013-09-30 18:32:00,52.0,49.0,-100.00,SSW,209,1.0,7.0,91,0.11,,,0.91,117.000000,,2013-10-01 01:32:00,
2013-09-30 18:52:00,50.0,46.0,-100.00,SSW,207,1.0,8.0,86,0.00,,,0.44,38.000000,,2013-10-01 01:52:00,
2013-09-30 19:02:00,50.0,46.0,-100.00,SSW,207,1.0,8.0,86,0.00,,,0.44,38.000000,,2013-10-01 02:02:00,
2013-09-30 19:12:00,50.0,46.0,-100.00,SSW,207,1.0,8.0,86,0.00,,,0.44,38.000000,,2013-10-01 02:12:00,
2013-09-30 19:22:00,50.0,46.0,-100.00,SSW,207,1.0,8.0,86,0.00,,,0.44,38.000000,,2013-10-01 02:22:00,
2013-09-30 19:32:00,50.0,46.0,-100.00,SSW,207,1.0,8.0,86,0.00,,,0.44,38.000000,,2013-10-01 02:32:00,
2013-09-30 19:33:00,49.0,44.0,-100.00,South,177,2.0,7.0,84,0.00,,,0.44,6.000000,,2013-10-01 02:33:00,
2013-09-30 19:52:00,49.0,44.0,-100.00,South,177,2.0,7.0,84,0.00,,,0.44,6.000000,,2013-10-01 02:52:00,
2013-09-30 20:02:00,49.0,44.0,-100.00,South,177,2.0,7.0,84,0.00,,,0.44,6.000000,,2013-10-01 03:02:00,
2013-09-30 20:12:00,49.0,44.0,-100.00,South,177,2.0,7.0,84,0.00,,,0.44,6.000000,,2013-10-01 03:12:00,
2013-09-30 20:22:00,49.0,44.0,-100.00,South,177,2.0,7.0,84,0.00,,,0.44,6.000000,,2013-10-01 03:22:00,
2013-09-30 20:55:00,47.0,45.0,-100.00,South,174,1.0,6.0,93,0.11,,,0.50,0.000000,,2013-10-01 03:55:00,
2013-09-30 21:04:00,47.0,45.0,-100.00,South,174,1.0,6.0,93,0.11,,,0.50,0.000000,,2013-10-01 04:04:00,
2013-09-30 21:14:00,47.0,45.0,-100.00,South,174,1.0,6.0,93,0.11,,,0.50,0.000000,,2013-10-01 04:14:00,
2013-09-30 21:24:00,47.0,45.0,-100.00,South,174,1.0,6.0,93,0.11,,,0.50,0.000000,,2013-10-01 04:24:00,